Regional Weather Roundup
Issued by NWS Albany, NY

Home | Current Version | Previous Version | Text Only | Print | Product List | Glossary On
Versions: 1 2 3 4 5 6 7 8 9 10 11 12 13 14 15 16 17 18 19 20 21 22 23 24 25 26 27
000
ASUS41 KALY 270810
RWRALY

NEW YORK STATE HOURLY WEATHER ROUNDUP
NATIONAL WEATHER SERVICE ALBANY NY
400 AM EDT TUE JUN 27 2017

NOTE: "FAIR" INDICATES FEW OR NO CLOUDS BELOW 12,000 FEET WITH NO
SIGNIFICANT WEATHER AND/OR NO OBSTRUCTIONS TO VISIBILITY.

NYZ032-033-038>043-046>054-057>066-NYZ062>081-082-084-270900-
EAST


CITY           SKY/WX    TMP DP  RH WIND       PRES   REMARKS
ALBANY         MOCLDY    57  54  89 CALM      29.98S
GLENS FALLS    MOCLDY    55  54  96 S8        29.97S
POUGHKEEPSIE   NOT AVBL
NEWBURGH       PTCLDY    59  57  94 VRB6      30.00F
NEW YORK CITY  CLOUDY    68  53  58 NE6       29.98F
CENTRAL PARK   CLOUDY    66  50  56 VRB5      30.01F
$$

NYZ005>009-017-018-044>046-055-056-270900-
CENTRAL


CITY           SKY/WX    TMP DP  RH WIND       PRES   REMARKS
FULTON         MOCLDY    55  52  89 S7        29.94S
SYRACUSE       PTCLDY    56  51  84 CALM      29.93F
ROME           CLEAR     53  52  96 E7        29.97F
ELMIRA         NOT AVBL
BINGHAMTON     NOT AVBL
$$

NYZ026>034-041>043-087-270900-
NORTH


CITY           SKY/WX    TMP DP  RH WIND       PRES   REMARKS
WATERTOWN      CLEAR     53  53 100 S5        29.92F
FORT DRUM      NOT AVBL
OGDENSBURG     FAIR      52  51  97 CALM      29.92S
MASSENA        CLEAR     51  50  96 CALM      29.94R
SARANAC LAKE   PTCLDY    39  39 100 CALM      29.95R
PLATTSBURGH    NOT AVBL
$$

NYZ001>004-010>016-019>021-085-270900-
WEST


CITY           SKY/WX    TMP DP  RH WIND       PRES   REMARKS
NIAGARA FALLS  LGT RAIN  57  52  83 SE6       29.92F
BUFFALO        LGT RAIN  56  51  84 S10       29.95R
DUNKIRK        CLOUDY    55  50  83 S12       29.95F
JAMESTOWN      CLOUDY    48  45  87 SW7       29.98S
WELLSVILLE     MOCLDY    51  44  77 W7        29.99S
ROCHESTER      LGT RAIN  57  52  83 SW9       29.94S
PENN YAN       CLEAR     55  50  83 SW9       29.95F
$$

             KEY
       WCI = WIND CHILL INDEX
       VSB = VISIBILITY
       HX  = HEAT INDEX
$$




USA.gov is the U.S. government's official web portal to all federal, state and local government web resources and services.